Weather History for KDLH - July, 2013

Change the Weather History Date:

Tuesday, July 30, 2013

  Actual Average Record
Temperature  
Mean Temperature 67 °F 66 °F  
Max Temperature 72 °F 77 °F 94 °F (1995)
Min Temperature 61 °F 56 °F 42 °F (1971)
Degree Days  
Heating Degree Days 0 2  
Month to date heating degree days 47 66  
Since 1 June heating degree days 193 245  
Since 1 July heating degree days 47 66  
Cooling Degree Days 2 3  
Month to date cooling degree days 137 87  
Year to date cooling degree days 191 121  
Since 1 June cooling degree days 190 117  
Growing Degree Days 16 (Base 50)    
Moisture  
Dew Point 58 °F    
Average Humidity 77    
Maximum Humidity 87    
Minimum Humidity 66    
Precipitation  
Precipitation 0.04 in 0.11 in 1.34 in (1979)
Month to date precipitation 1.60 3.73  
Year to date precipitation 19.48 16.88  
Snow  
Snow 0.00 in 0.00 in 0.00 in (2002)
Month to date snowfall 0.0 0.0  
Since 1 June snowfall 0.0 0.0  
Since 1 July snowfall 0.0 0.0  
Snow Depth 0.00 in    
Sea Level Pressure  
Sea Level Pressure 30.08 in    
Wind  
Wind Speed 7 mph (SSW)    
Max Wind Speed 13 mph    
Max Gust Speed 15 mph    
Visibility 10 miles    
Events Rain    
T = Trace of Precipitation, MM = Missing Value Source: NWS Daily Summary

Daily Weather History Graph

Daily Weather History Graph

Search for Another Location

Airport or City:

Trip Planner

Search our weather history database for the weather conditions in past years. The results will help you decide how hot, cold, wet, or windy it might be!

Date:

Astronomy

Jul. 30, 2013 Rise Set
Actual Time 5:46 AM CDT 8:43 PM CDT
Civil Twilight 5:10 AM CDT 9:18 PM CDT
Nautical Twilight 4:25 AM CDT 10:03 PM CDT
Astronomical Twilight 3:30 AM CDT 10:58 PM CDT
Moon 12:08 AM CDT (7/30) 3:02 PM CDT (7/30)
Length of Visible Light 16h 07m
Length of Day
14h 56m
Last Quarter, 41% of the Moon is Illuminated
Jul 30
Last Quarter
Aug 6
New
Aug 14
First Quarter
Aug 20
Full
Aug 28
Last Quarter

Hourly Weather History & Observations

Time (CDT) Temp. Dew Point Humidity Pressure Visibility Wind Dir Wind Speed Gust Speed Precip Events Conditions
12:55 AM 62.1 °F 53.1 °F 72% 30.10 in 10.0 mi Calm Calm - N/A   Overcast
1:55 AM 62.1 °F 54.0 °F 75% 30.09 in 10.0 mi SSE 3.5 mph - N/A   Mostly Cloudy
2:55 AM 63.0 °F 54.0 °F 72% 30.08 in 10.0 mi South 3.5 mph - N/A   Overcast
3:55 AM 63.0 °F 54.0 °F 72% 30.08 in 10.0 mi South 3.5 mph - N/A   Mostly Cloudy
4:55 AM 62.1 °F 55.0 °F 78% 30.10 in 9.0 mi SW 8.1 mph - 0.01 in Rain Light Rain
5:55 AM 62.1 °F 55.9 °F 80% 30.10 in 10.0 mi SW 4.6 mph - 0.01 in   Overcast
6:55 AM 61.0 °F 55.9 °F 83% 30.12 in 10.0 mi Calm Calm - 0.01 in   Overcast
7:55 AM 62.1 °F 57.0 °F 84% 30.12 in 10.0 mi SSE 3.5 mph - 0.01 in Rain Light Rain
8:51 AM 62.6 °F 57.2 °F 82% 30.11 in 10.0 mi SSE 4.6 mph - 0.00 in   Overcast
8:55 AM 63.0 °F 57.0 °F 81% 30.12 in 10.0 mi SSE 4.6 mph - 0.00 in   Overcast
9:33 AM 62.6 °F 57.2 °F 82% 30.11 in 10.0 mi SSE 3.5 mph - N/A   Overcast
9:55 AM 64.0 °F 57.9 °F 80% 30.11 in 10.0 mi South 4.6 mph - N/A   Overcast
10:55 AM 64.9 °F 57.9 °F 78% 30.11 in 10.0 mi South 10.4 mph - N/A   Overcast
11:06 AM 64.4 °F 57.2 °F 77% 30.10 in 10.0 mi SSW 10.4 mph - N/A   Overcast
11:55 AM 66.0 °F 57.9 °F 75% 30.10 in 10.0 mi South 11.5 mph - N/A   Overcast
12:50 PM 69.8 °F 57.2 °F 64% 30.09 in 10.0 mi WSW 11.5 mph - N/A   Overcast
12:55 PM 68.0 °F 57.9 °F 70% 30.09 in 10.0 mi WSW 9.2 mph - N/A   Overcast
1:55 PM 68.0 °F 57.9 °F 70% 30.08 in 10.0 mi WSW 8.1 mph - N/A   Overcast
2:55 PM 69.1 °F 59.0 °F 70% 30.08 in 10.0 mi SW 9.2 mph - N/A   Overcast
3:55 PM 70.0 °F 60.1 °F 71% 30.07 in 10.0 mi SW 8.1 mph - N/A   Mostly Cloudy
4:02 PM 69.8 °F 59.0 °F 68% 30.07 in 10.0 mi SW 5.8 mph - N/A   Mostly Cloudy
4:31 PM 69.8 °F 60.8 °F 73% 30.06 in 10.0 mi SW 8.1 mph - N/A   Overcast
4:55 PM 71.1 °F 60.1 °F 68% 30.06 in 10.0 mi West 6.9 mph - N/A   Mostly Cloudy
5:34 PM 71.6 °F 60.8 °F 69% 30.07 in 10.0 mi SW 8.1 mph - N/A   Mostly Cloudy
5:45 PM 71.6 °F 60.8 °F 69% 30.06 in 10.0 mi SSW 6.9 mph - N/A   Mostly Cloudy
5:55 PM 72.0 °F 60.1 °F 66% 30.06 in 10.0 mi SW 8.1 mph - N/A   Mostly Cloudy
6:31 PM 71.6 °F 60.8 °F 69% 30.05 in 10.0 mi SSW 6.9 mph - N/A   Scattered Clouds
6:55 PM 71.1 °F 59.0 °F 66% 30.05 in 10.0 mi SW 8.1 mph - N/A   Scattered Clouds
7:55 PM 69.1 °F 60.1 °F 73% 30.05 in 10.0 mi SSW 6.9 mph - N/A   Scattered Clouds
8:55 PM 66.9 °F 60.1 °F 79% 30.06 in 10.0 mi SSW 6.9 mph - N/A   Scattered Clouds
9:55 PM 64.0 °F 59.0 °F 84% 30.05 in 10.0 mi SSW 5.8 mph - N/A   Scattered Clouds
10:55 PM 64.9 °F 60.1 °F 84% 30.06 in 10.0 mi SW 9.2 mph - N/A   Partly Cloudy
11:55 PM 64.0 °F 60.1 °F 87% 30.05 in 10.0 mi WSW 10.4 mph - N/A   Partly Cloudy